Content
SEND FEEDBACK

Daily
Averages
Monthly
Summary
United States of America

MERIZO, GUAM


Home > North America > United States > Guam
Elevation: 10 feet     Latitude: 13 14N     Longitude: 144 39E

WEATHER
 
SELECT A DAY
Number of Records: 342,038;   Date Range: 1/1/95 - 7/29/14
 
SHARE

PRINT THIS DATA

[ ← Previous Day ]
WEATHER ALMANAC - NOVEMBER 13, 2013
[ Next Day → ]
[ °C ]   °F
Weather ElementAverageHighLow
Temperature80.1 °F84.6 °F (12:58 pm)76.3 °F (4:58 am)
Dewpoint74.3 °F77 °F (11:26 am)69.1 °F (11:58 pm)
Humidity82.7 %94 % (5:28 am)73 % (11:58 pm)
Barometer29.84 in29.88 in (10:38 am)29.78 in (2:58 pm)
Wind Speed8.7 mph12.7 mph (2:58 pm)
Weather ElementAverage
Visibility10 mi
Wind DirectionENE (62.8 °)

Weather ElementTotal
Precipitation---
Cooling Degree Days15.5 (Base 65)
Growing Degree Days30.5 (Base 50)
Averaged from 40 records on November 13, 2013
WEATHER CONDITIONS BREAKOUT
WIND DIRECTION BREAKOUT
WEATHER BY HOUR - NOVEMBER 13, 2013
[ °C ]   °F
Local TimeTemperatureDewpointHumidityBarometerVisibilityWind DirectionWind SpeedGust SpeedPrecipitationEventsConditions
1:55 AM78.1 °F74.5 °F89 %29.80 in10.0 miENE (70°)5.8 mphScattered Clouds
2:58 AM77.9 °F74.8 °F90 %29.81 in10.0 miENE (60°)10.4 mphScattered Clouds
3:58 AM77.4 °F73.4 °F88 %29.79 in10.0 miENE (60°)8.1 mphPartly Cloudy
4:58 AM76.3 °F73.9 °F92 %29.81 in10.0 miENE (70°)6.9 mphPartly Cloudy
5:13 AM77.0 °F73.4 °F89 %29.83 in10.0 miENE (60°)5.8 mphMostly Cloudy
5:18 AM77.0 °F73.4 °F89 %29.83 in10.0 miENE (60°)6.9 mphMostly Cloudy
5:23 AM77.0 °F73.4 °F89 %29.83 in10.0 miENE (60°)6.9 mphMostly Cloudy
5:28 AM77.0 °F75.2 °F94 %29.83 in10.0 miENE (60°)5.8 mphMostly Cloudy
5:33 AM78.8 °F75.2 °F89 %29.84 in10.0 miNE (50°)5.8 mphMostly Cloudy
5:43 AM78.8 °F75.2 °F89 %29.84 in10.0 miNE (40°)8.1 mphMostly Cloudy
5:48 AM78.8 °F75.2 °F89 %29.84 in10.0 miNE (50°)8.1 mphMostly Cloudy
5:58 AM78.8 °F75.2 °F89 %29.81 in10.0 miENE (60°)10.4 mphMostly Cloudy
6:58 AM77.2 °F74.3 °F91 %29.82 in10.0 miENE (70°)5.8 mphPartly Cloudy
7:58 AM78.4 °F74.8 °F89 %29.84 in10.0 miENE (70°)8.1 mphScattered Clouds
8:58 AM81.1 °F75.7 °F84 %29.86 in10.0 miENE (60°)8.1 mphClear
9:58 AM83.8 °F76.1 °F77 %29.86 in10.0 miENE (60°)9.2 mphPartly Cloudy
10:38 AM80.6 °F75.2 °F84 %29.88 in10.0 miCalmMostly Cloudy
10:43 AM80.6 °F75.2 °F84 %29.88 in10.0 miENE (70°)6.9 mphMostly Cloudy
10:48 AM82.4 °F75.2 °F79 %29.87 in10.0 miENE (60°)9.2 mphMostly Cloudy
10:58 AM82.6 °F75.7 °F80 %29.84 in10.0 miEast (80°)10.4 mphMostly Cloudy
11:08 AM82.4 °F75.2 °F79 %29.87 in10.0 miENE (70°)10.4 mphScattered Clouds
11:17 AM82.4 °F75.2 °F79 %29.86 in10.0 miEast (80°)8.1 mphLight Drizzle
11:26 AM84.2 °F77.0 °F79 %29.86 in10.0 miEast (90°)10.4 mphClear
11:58 AM84.4 °F75.2 °F74 %29.82 in10.0 miEast (80°)9.2 mph0.00 inClear
12:38 PM84.2 °F75.2 °F74 %29.83 in10.0 miEast (90°)9.2 mphMostly Cloudy
12:43 PM84.2 °F75.2 °F74 %29.83 in10.0 miEast (100°)10.4 mphScattered Clouds
12:58 PM84.6 °F76.1 °F76 %29.82 in10.0 miEast (100°)10.4 mphPartly Cloudy
1:58 PM83.1 °F75.7 °F78 %29.81 in10.0 miEast (80°)9.2 mphScattered Clouds
2:58 PM82.4 °F74.7 °F77 %29.78 in10.0 miENE (70°)12.7 mphPartly Cloudy
3:58 PM82.8 °F75.2 °F78 %29.79 in10.0 miENE (70°)12.7 mphScattered Clouds
4:58 PM81.5 °F74.1 °F78 %29.81 in10.0 miENE (60°)12.7 mphClear
5:58 PM79.2 °F72.9 °F81 %29.81 in10.0 miENE (60°)9.2 mphPartly Cloudy
6:58 PM79.7 °F72.3 °F78 %29.83 in10.0 miNE (50°)10.4 mphClear
7:22 PM78.8 °F71.6 °F78 %29.87 in10.0 miNE (50°)9.2 mphRainLight Rain
7:33 PM78.8 °F73.4 °F83 %29.88 in10.0 miENE (60°)10.4 mphScattered Clouds
7:58 PM79.0 °F71.4 °F78 %29.86 in10.0 miNE (50°)9.2 mph0.00 inClear
8:58 PM77.9 °F72.9 °F84 %29.87 in10.0 miENE (60°)10.4 mphClear
9:58 PM78.3 °F72.5 °F82 %29.88 in10.0 miNE (40°)9.2 mphPartly Cloudy
10:58 PM78.3 °F71.8 °F80 %29.88 in10.0 miNE (40°)12.7 mphScattered Clouds
11:58 PM78.3 °F69.1 °F73 %29.87 in10.0 miNE (40°)5.8 mphMostly Cloudy
Hourly data recorded from PGUA, located miles away from Merizo, Guam







STORIES FROM OUR PARTNERS